Location: Kerguer�zec
(48.4509°N, 4.7600°W)
Time: 06:06:02
(UTC+00:00)

X-37B - Visible Passes

Search period start: 04 March 2021 00:00
Search period end: 14 March 2021 00:00
Orbit: 383 x 391 km, 45.0° (Epoch: 27 February)

Date Brightness Start Highest point End Pass type
(mag) Time Alt. Az. Time Alt. Az. Time Alt. Az.
12 Mar 2.3 19:53:23 10° SSW 19:55:23 20° S 19:55:23 20° S visible
13 Mar 2.7 18:55:53 10° S 18:57:46 15° SSE 18:59:38 10° ESE visible
13 Mar 2.6 20:30:52 10° WSW 20:32:17 22° SW 20:32:17 22° SW visible
